Time,TemperatureF,DewpointF,PressureIn,WindDirection,WindDirectionDegrees,WindSpeedMPH,WindSpeedGustMPH,Humidity,HourlyPrecipIn,Conditions,Clouds,dailyrainin,SoftwareType,DateUTC
2013-05-12 00:00:00,52.0,29.0,-100.00,SW,221,18.0,27.0,41,-99.99,,,-99.99,,2013-05-12 07:00:00,
2013-05-12 01:00:00,51.0,32.0,-100.00,WSW,252,16.0,27.0,48,-99.99,,,-99.99,,2013-05-12 08:00:00,
2013-05-12 02:00:00,51.0,36.0,-100.00,SW,228,14.0,25.0,57,-99.99,,,-99.99,,2013-05-12 09:00:00,
2013-05-12 03:00:00,50.0,35.0,-100.00,WSW,252,16.0,27.0,57,-99.99,,,-99.99,,2013-05-12 10:00:00,
2013-05-12 05:00:00,48.0,39.0,-100.00,WSW,238,14.0,29.0,72,-99.99,,,-99.99,,2013-05-12 12:00:00,
2013-05-12 06:00:00,46.0,38.0,-100.00,West,279,20.0,30.0,73,-99.99,,,-99.99,,2013-05-12 13:00:00,
2013-05-12 09:00:00,47.0,39.0,-100.00,SW,216,20.0,29.0,74,-99.99,,,-99.99,,2013-05-12 16:00:00,
2013-05-12 10:00:00,47.0,38.0,-100.00,SW,231,13.0,28.0,72,-99.99,,,-99.99,,2013-05-12 17:00:00,
2013-05-12 11:00:00,46.0,40.0,-100.00,WSW,257,6.0,21.0,80,-99.99,,,-99.99,,2013-05-12 18:00:00,
2013-05-12 12:00:00,45.0,40.0,-100.00,WSW,257,13.0,27.0,81,-99.99,,,-99.99,,2013-05-12 19:00:00,
2013-05-12 13:00:00,47.0,38.0,-100.00,South,189,13.0,22.0,71,-99.99,,,-99.99,,2013-05-12 20:00:00,
2013-05-12 14:00:00,49.0,34.0,-100.00,West,266,12.0,20.0,57,-99.99,,,-99.99,,2013-05-12 21:00:00,
2013-05-12 15:00:00,48.0,35.0,-100.00,SSW,193,13.0,22.0,60,-99.99,,,-99.99,,2013-05-12 22:00:00,
2013-05-12 16:00:00,47.0,35.0,-100.00,WSW,245,12.0,25.0,63,-99.99,,,-99.99,,2013-05-12 23:00:00,
2013-05-12 17:00:00,46.0,37.0,-100.00,SW,236,13.0,25.0,70,-99.99,,,-99.99,,2013-05-13 00:00:00,
2013-05-12 18:00:00,45.0,37.0,-100.00,SSW,203,12.0,23.0,74,-99.99,,,-99.99,,2013-05-13 01:00:00,
2013-05-12 19:00:00,44.0,37.0,-100.00,SW,229,13.0,27.0,76,-99.99,,,-99.99,,2013-05-13 02:00:00,
2013-05-12 20:00:00,43.0,36.0,-100.00,WSW,251,15.0,27.0,77,-99.99,,,-99.99,,2013-05-13 03:00:00,
2013-05-12 21:00:00,42.0,38.0,-100.00,WSW,240,15.0,27.0,87,-99.99,,,-99.99,,2013-05-13 04:00:00,
2013-05-12 22:00:00,42.0,40.0,-100.00,WSW,249,12.0,27.0,92,-99.99,,,-99.99,,2013-05-13 05:00:00,
2013-05-12 23:00:00,42.0,39.0,-100.00,West,259,13.0,23.0,90,-99.99,,,-99.99,,2013-05-13 06:00:00,